#timestamp,LO_Frequency,Hit,StdDev 
1569330015.3,286047001.1,N
1569330035.2,286046996.5,N
1569330055.0,286046999.3,N
1569330055.9,286046999.3,N
1569330075.8,286046999.3,N
1569330095.6,286046998.1,N
1569330115.4,286047000.5,N
1569330135.3,286046999.8,N
1569330155.1,286047001.0,N
1569330175.9,286047000.6,N
1569330195.7,286047001.3,N
1569330215.5,286047002.1,N
1569330235.4,286046999.7,N
1569330255.2,286047000.6,N
1569330275.0,286046999.7,N
1569330275.9,286046999.7,N
1569330295.8,286047002.6,N
1569330315.6,286047002.2,N
1569330335.5,286047002.4,N
1569330355.3,286047001.6,N
1569330375.1,286047002.0,N
1569330395.9,286047001.5,N
1569330415.7,286047001.8,N
1569330435.6,286047002.6,N
1569330455.4,286047002.7,N
1569330475.2,286046999.8,N
1569330495.1,286047001.8,N
1569330496.0,286047001.8,N
1569330515.8,286047003.9,N
1569330535.7,286047003.0,N
1569330555.5,286047003.3,N
1569330575.3,286047003.4,N
1569330595.2,286047003.8,N
1569330615.9,286047001.7,N
1569330635.7,286047003.7,N
1569330655.6,286047003.0,N
1569330675.4,286047003.2,N
1569330695.3,286047003.9,Y
1569330715.1,286047002.6,P
1569330716.0,286047002.6,P
1569330735.8,286047002.3,P
1569330755.7,286047001.3,Y
1569330775.5,286046999.7,P
1569330795.4,286047000.1,N
1569330815.2,286047001.0,N
1569330835.0,286046998.5,N
1569330835.9,286046998.5,N
1569330855.8,286046998.8,N
1569330875.6,286046996.5,N
1569330895.5,286046998.9,N
1569330915.3,286046998.4,N
1569330935.1,286046999.2,N
1569330955.9,286046999.2,N
1569330975.7,286046998.8,N
1569330995.5,286047000.7,N
1569331015.4,286046998.2,N
1569331035.2,286046999.0,N
1569331055.1,286046998.3,N
1569331056.0,286046998.3,N
1569331075.8,286047001.1,N
1569331095.6,286046999.4,N
1569331115.5,286046998.8,N
1569331135.3,286046998.1,N
1569331155.2,286046999.4,N
1569331175.9,286046998.3,N
1569331195.7,286046999.0,N
1569331215.6,286046996.9,N
1569331235.4,286046999.2,N
1569331255.2,286046996.9,N
1569331275.1,286046996.5,N
1569331276.0,286046996.5,N
1569331295.8,286046999.2,N
1569331315.7,286046998.4,N
1569331335.5,286046999.6,N
1569331355.3,286046999.6,N
1569331375.2,286046999.1,N
1569331395.0,286046997.1,N
1569331395.9,286046997.1,N
1569331415.8,286046997.4,N
1569331435.6,286046997.4,N
1569331455.4,286046994.9,Y
1569331475.3,286046997.3,P
1569331495.1,286046997.9,P
1569331515.9,286046997.0,P
1569331535.7,286046997.1,Y
1569331555.5,286047001.2,P
1569331575.4,286046999.1,N
1569331595.2,286046999.1,N
1569331615.0,286046999.4,N
1569331616.0,286046999.4,N
1569331635.8,286046998.7,N
1569331655.6,286046998.7,N
1569331675.5,286046999.1,N
1569331695.3,286046998.7,N
1569331715.1,286046999.2,N
1569331735.9,286046996.6,Y
1569331755.7,286046996.6,P
1569331775.6,286046999.4,N
1569331795.4,286046999.6,N
1569331815.2,286046999.2,N
1569331835.1,286046999.2,N
1569331836.0,286046999.2,N
1569331855.8,286046998.7,N
1569331875.7,286046998.7,N
1569331895.5,286047001.2,N
1569331915.3,286046999.9,N
1569331935.2,286046998.1,N
1569331955.0,286046998.1,N
1569331955.9,286046998.1,N
1569331975.7,286046998.9,N
1569331995.6,286046998.6,N
1569332015.4,286047002.4,N
1569332035.3,286047000.3,N
1569332055.1,286047000.1,N
1569332056.0,286047000.1,N
1569332075.8,286046998.6,N
1569332095.7,286046999.3,N
1569332115.5,286047001.2,N
1569332135.4,286047000.4,N
1569332155.2,286047000.9,N
1569332175.0,286047001.0,N
1569332175.9,286047001.0,N
1569332195.8,286046998.1,N
1569332215.6,286046998.6,N
1569332235.4,286046998.9,N
1569332255.3,286046999.3,N
1569332275.1,286046997.9,N
1569332295.9,286046997.3,N
1569332315.7,286046997.3,N
1569332335.5,286046999.6,N
1569332355.4,286046998.6,N
1569332375.2,286047000.7,N
1569332395.1,286047001.0,N
1569332396.0,286047001.0,N
1569332415.8,286046999.2,N
1569332435.6,286046999.6,N
1569332455.5,286046999.4,N
1569332475.3,286046998.4,N
1569332495.1,286046998.9,N
1569332515.9,286046998.3,N
1569332535.7,286046998.3,N
1569332555.6,286046998.2,N
1569332575.4,286047000.9,N
1569332595.2,286046998.5,N
1569332615.1,286047000.7,N
1569332616.0,286047000.7,N
1569332635.8,286047000.2,N
1569332655.7,286047002.8,N
1569332675.5,286047000.1,N
1569332695.3,286047000.2,N
1569332715.2,286047000.1,N
1569332735.0,286047001.0,N
1569332735.9,286047001.0,N
1569332755.7,286046998.5,N
1569332775.6,286047000.8,N
1569332795.4,286046999.7,N
1569332815.3,286047000.2,N
1569332835.1,286047002.8,N
1569332836.0,286047002.8,N
1569332855.8,286047000.0,N
1569332875.7,286046998.8,N
1569332895.5,286046998.3,N
1569332915.4,286046998.4,N
1569332935.2,286046999.3,N
1569332955.0,286047000.6,N
1569332955.9,286047000.6,N
1569332975.8,286047001.1,N
1569332995.6,286047000.9,N
1569333015.4,286046998.6,N
1569333035.3,286046998.7,N
1569333055.1,286046998.7,N
1569333075.9,286046998.7,N
1569333095.7,286046998.6,N
1569333115.5,286046999.1,N
1569333135.4,286046997.0,N
1569333155.2,286046997.2,N
1569333175.1,286046996.7,N
1569333176.0,286046996.7,N
1569333195.8,286046999.6,N
1569333215.6,286046998.3,N
1569333235.5,286046998.1,N
1569333255.3,286046998.3,N
1569333275.2,286047001.1,N
1569333295.9,286047001.1,N
1569333315.7,286047000.3,N
1569333335.6,286046998.1,N
1569333355.4,286046998.5,N
1569333375.2,286047000.8,N
1569333395.1,286047000.5,N
1569333396.0,286047000.5,N
1569333415.8,286047000.3,N
1569333435.7,286046998.8,N
1569333455.5,286046998.3,N
1569333475.3,286047000.8,N
1569333495.2,286046999.8,N
1569333515.0,286047002.6,N
1569333515.9,286047002.6,N
1569333535.8,286047002.3,N
1569333555.6,286047002.1,N
1569333575.4,286047002.6,N
1569333595.3,286047004.3,N
